Temperature
17 17 17 18 18 18 18 18 18 18 18 17 17 17 17 17 17 17 17 17 17 17 17 17 18 17 17 18 18 18 18 18 18 18 18 18 18 18 18 18 18 18 18
18 17 17 18 18 18 18 18 17 18 18 17 17 17 17 17 17 17 17 17 17 17 17 17 17 17 17 17 17 17 17 17 17 18 18 18 18 18 18 18 18 18 18
18 18 18 18 18 17 18 17 17 17 17 17 17 17 17 17 17 17 17 17 17 17 17 17 17 17 17 17 17 17 17 17 17 17 17 18 17 18 18 18 18 18 18
18 17 17 17 17 17 17 17 17 17 17 17 17 17 17 17 17 17 17 17 17 17 17 17 17 17 17 17 17 17 17 17 17 17 17 17 17 17 18 18 18 18 18
17 17 17 17 17 17 17 17 17 17 17 17 17 17 16 17 17 17 17 17 17 17 17 17 17 17 17 17 17 17 17 17 17 17 17 17 17 17 17 17 17 17 17
17 17 17 17 17 17 17 17 17 17 17 17 17 17 16 16 17 17 17 16 17 17 17 17 17 17 17 17 17 17 17 17 17 17 17 17 17 17 17 17 17 17 17
17 17 17 17 17 17 17 17 17 17 17 17 17 16 16 16 16 16 16 16 16 17 17 17 17 17 17 17 17 16 17 17 17 17 17 17 17 17 17 17 17 17 17
17 17 17 17 17 17 17 17 17 17 17 17 17 17 16 16 16 16 16 16 16 17 17 16 16 16 16 16 16 16 16 16 16 16 16 16 17 17 17 17 17 17 17
18 17 17 17 17 17 17 17 17 17 16 16 16 16 16 16 16 16 16 16 16 16 17 16 16 16 16 16 16 16 16 16 16 16 16 16 16 16 17 17 17 17 17
18 17 17 17 17 17 17 17 17 17 17 16 16 16 16 16 16 16 16 16 16 16 16 16 16 16 16 16 16 16 16 16 16 16 16 16 16 16 16 16 16 16 17
18 17 17 17 17 17 17 17 17 17 16 16 16 16 16 16 16 16 16 16 16 16 16 16 16 16 16 16 16 16 16 16 16 16 16 16 16 16 16 16 16 16 16
17 17 17 17 17 17 17 17 17 17 17 16 16 16 16 16 16 16 16 16 16 16 16 16 16 16 16 16 16 16 16 16 16 16 16 16 16 16 16 16 16 16 16
18 17 17 17 17 17 17 17 17 17 17 16 16 16 16 16 16 16 16 16 16 16 16 16 16 16 16 16 16 16 16 16 16 16 16 15 15 15 15 15 15 15 16
18 18 17 17 17 17 17 17 17 17 17 17 16 16 16 16 16 16 16 16 16 16 16 16 16 16 16 16 16 16 16 16 16 15 15 15 15 15 15 15 15 15 15
18 18 18 17 17 17 17 17 17 17 17 17 17 16 16 16 16 16 16 16 16 16 16 16 16 16 16 16 16 16 16 16 15 15 15 15 15 15 15 15 15 15 15
18 18 18 18 17 17 17 17 17 17 17 17 17 17 16 16 16 16 16 16 16 16 16 16 16 16 16 16 16 16 16 15 15 15 15 15 15 15 15 15 15 15 15
18 18 18 18 18 17 17 17 17 17 17 17 17 17 17 16 16 16 16 16 16 16 16 16 16 16 16 16 16 16 15 15 15 15 15 15 15 15 15 15 15 15 14
18 18 18 18 18 17 17 17 17 17 17 17 17 17 17 17 16 16 16 16 16 16 16 16 16 16 16 16 16 16 15 15 15 15 15 15 15 15 15 15 15 15 14
19 18 18 18 18 18 17 17 17 17 17 17 17 17 17 17 17 17 16 16 16 16 16 16 16 16 16 16 16 15 15 15 15 15 15 15 15 14 14 14 14 14 14
19 18 18 18 18 17 17 17 17 17 17 17 17 17 17 17 17 16 16 16 16 16 16 16 16 16 16 16 16 15 15 15 15 15 15 15 14 14 14 14 14 14 14
19 18 18 18 18 18 17 17 17 17 17 17 17 17 16 16 16 16 16 16 16 16 16 16 16 16 16 16 16 15 15 15 15 15 15 15 14 14 14 14 14 14 14
19 19 18 18 18 18 17 17 17 17 17 17 17 16 16 16 16 16 16 16 16 16 16 16 16 16 16 15 15 15 15 15 15 15 15 14 14 14 14 14 14 14 14
19 19 19 18 18 18 17 17 17 17 17 16 16 16 16 16 16 16 16 16 16 16 16 16 16 16 16 15 15 15 15 15 15 14 14 14 14 14 14 14 14 14 14
19 19 19 18 18 18 17 17 17 17 17 17 16 16 16 16 16 16 16 16 16 16 16 16 16 16 16 15 15 15 15 15 15 14 14 14 14 14 14 14 13 13 13
19 19 19 18 18 18 18 17 17 17 17 16 16 16 16 16 16 16 16 16 16 16 16 16 16 16 15 15 15 15 15 15 15 15 14 14 14 14 14 13 13 13 13
19 19 19 19 18 18 18 17 17 17 17 17 16 16 16 16 16 16 16 16 16 16 16 15 15 15 15 15 15 15 15 15 15 15 14 14 14 14 13 13 13 13 13
Wind_Speed
2 3 8 9 11 11 11 11 11 12 12 11 11 11 11 11 11 11 11 10 11 11 11 11 11 11 11 11 10 10 10 11 11 11 11 11 10 9 9 9 8 7 8
5 6 10 10 11 11 11 11 11 11 11 11 11 11 11 11 10 10 10 10 10 10 10 10 10 10 10 10 10 10 9 10 11 11 10 10 11 11 10 10 9 8 9
7 8 10 11 11 11 11 10 11 11 11 11 11 11 11 10 10 10 10 10 9 10 10 10 10 10 10 10 10 10 10 10 10 11 10 9 9 11 11 11 11 10 9
9 9 10 12 11 11 10 11 11 11 11 11 11 10 10 10 10 10 10 9 9 10 9 9 9 9 10 10 10 10 10 10 11 11 9 9 9 11 12 11 11 10 9
8 9 10 12 11 11 11 11 11 11 11 11 11 10 10 10 10 10 9 9 9 10 9 9 9 9 9 9 10 10 11 11 12 11 10 9 9 11 12 11 11 10 10
7 9 10 12 11 11 11 11 11 11 10 10 10 10 10 10 10 9 9 9 9 9 9 8 8 8 8 9 10 10 11 12 11 10 9 9 9 11 12 12 11 11 10
7 9 10 11 11 11 10 10 10 9 9 9 10 10 9 10 10 9 9 9 9 8 8 7 7 7 8 9 10 11 11 12 11 10 9 8 10 11 12 12 12 11 11
8 8 10 11 11 10 10 9 9 9 8 8 9 9 9 9 9 9 9 8 8 8 7 7 7 8 8 9 10 10 11 11 10 9 8 8 10 11 11 12 12 12 11
8 7 6 8 9 9 9 9 8 8 7 7 7 7 7 7 7 7 8 8 7 7 7 7 7 7 8 9 11 11 12 12 10 8 8 8 10 11 11 11 11 11 11
6 5 5 6 7 7 7 7 7 6 6 6 6 6 6 6 6 6 6 6 6 6 6 6 6 6 7 8 10 11 11 11 10 8 7 8 11 11 11 11 10 10 10
6 4 4 5 5 6 5 5 5 5 5 5 5 5 5 3 3 3 3 4 5 5 4 4 5 6 6 7 9 10 9 9 9 7 7 9 10 11 11 10 10 10 10
6 6 5 5 6 6 4 4 3 3 3 3 3 3 3 2 2 1 2 3 3 3 3 4 4 5 5 5 7 9 8 8 7 6 7 10 10 10 10 10 10 10 9
7 7 6 5 6 5 3 3 2 2 2 2 2 3 3 2 2 1 2 2 3 4 4 5 6 5 5 5 6 7 7 7 6 6 8 10 10 10 10 10 10 10 10
6 6 6 5 4 4 4 3 2 1 1 1 1 3 4 3 2 2 2 2 2 3 4 5 5 6 6 7 8 7 7 6 6 6 7 9 9 10 10 10 10 10 10
5 5 5 6 5 4 3 2 2 1 1 2 2 4 5 4 2 2 1 2 2 3 4 4 4 5 5 5 6 7 6 6 6 6 6 8 9 10 10 10 10 11 11
6 6 6 6 5 5 3 2 2 2 2 4 4 4 5 6 4 3 2 2 2 3 4 4 5 4 3 4 4 5 5 5 6 6 5 6 7 9 10 10 11 11 11
6 6 6 6 5 5 4 3 3 3 4 4 5 6 7 6 5 5 3 2 2 4 5 6 6 5 4 4 4 4 4 4 4 5 5 5 6 8 9 10 11 11 11
7 6 6 7 6 6 5 4 3 4 5 4 5 6 7 7 7 5 3 3 4 5 5 4 4 4 4 3 2 2 3 3 3 4 4 4 5 6 8 10 10 11 11
8 7 6 6 6 6 5 4 4 4 4 4 5 5 6 7 7 6 4 3 5 5 3 3 3 3 2 2 2 2 2 2 2 3 3 3 4 5 6 7 9 10 10
8 8 7 6 6 5 5 4 3 3 3 4 4 4 5 6 7 7 4 4 5 4 3 3 3 3 2 1 3 3 3 2 2 3 2 3 3 4 4 5 6 6 8
8 8 7 6 5 5 4 3 3 1 1 1 2 4 5 6 6 6 4 3 3 3 3 3 3 3 2 2 4 4 4 4 3 2 2 2 2 3 4 4 4 4 5
9 9 8 7 7 6 4 4 3 2 1 1 1 3 4 5 5 5 4 3 3 3 3 3 3 2 1 2 3 3 3 4 4 3 2 2 2 3 3 3 3 3 4
9 10 9 8 7 6 6 4 3 3 3 2 1 1 1 4 5 4 4 4 3 3 3 2 3 3 2 1 2 3 3 2 2 3 3 2 2 2 1 2 3 2 3
10 9 9 8 7 6 7 6 6 4 3 3 2 1 0 2 3 4 4 4 3 3 3 2 3 2 3 1 1 1 2 4 3 1 3 3 2 2 1 2 2 2 2
9 9 9 8 7 6 7 7 7 4 3 2 1 1 0 0 2 3 4 4 3 3 3 3 3 3 2 2 1 1 2 2 2 3 0 3 3 2 1 1 1 2 2
7 7 8 8 7 6 7 7 7 6 5 4 3 2 1 0 0 1 4 4 3 3 3 3 3 3 3 3 2 2 2 2 2 2 2 1 1 2 2 1 1 1 1
Wind_Direction
128 121 112 103 100 99 97 94 94 94 92 90 88 88 88 88 90 92 90 89 87 87 85 82 80 79 76 75 73 76 79 77 74 72 70 70 72 75 76 80 82 83 94
145 124 114 105 103 102 99 95 95 95 94 91 88 88 89 89 91 95 93 91 88 88 85 82 81 78 75 73 70 73 77 76 71 70 70 67 69 73 76 80 82 84 87
130 123 118 111 105 103 101 98 97 96 94 92 90 90 90 91 92 95 96 95 93 91 88 85 83 81 77 72 71 73 71 75 71 71 73 65 66 70 72 76 77 77 78
130 125 120 116 110 107 104 101 99 98 95 93 90 90 91 90 94 96 97 98 97 95 92 89 86 82 78 73 71 71 67 68 73 76 73 63 64 72 71 72 72 70 71
124 124 124 119 114 110 107 105 103 100 99 97 92 90 91 92 95 97 98 99 99 97 94 92 87 81 78 73 70 70 69 70 76 78 75 68 67 72 71 69 69 68 66
127 127 127 121 118 115 111 108 105 102 100 99 94 91 91 92 95 98 98 98 99 99 97 93 87 82 77 71 74 72 73 77 79 76 71 71 71 74 72 68 65 64 62
131 131 130 126 123 119 116 113 110 106 104 100 96 93 92 94 96 99 100 99 100 100 98 96 87 80 75 72 78 77 79 81 83 75 67 70 75 75 72 68 65 62 60
134 133 136 134 130 125 122 119 115 113 110 104 99 97 94 94 96 98 100 100 100 98 97 92 85 79 76 74 75 80 81 82 84 77 70 72 78 75 70 67 64 62 59
132 134 136 136 135 132 129 125 121 118 116 111 106 102 99 97 101 100 101 101 102 99 96 91 86 81 78 74 73 80 81 81 80 74 75 74 80 76 71 67 63 60 57
135 140 148 144 141 140 137 134 129 124 119 113 113 109 105 101 102 104 100 102 103 102 99 90 80 80 81 74 76 81 80 79 78 72 70 78 79 77 73 68 64 60 55
149 159 160 160 159 162 160 152 139 134 129 115 115 120 107 96 99 107 111 106 105 99 91 80 72 78 76 71 77 79 79 83 82 72 71 82 80 76 72 67 64 62 57
164 181 183 179 180 180 173 145 145 135 129 119 123 128 124 124 120 111 115 103 100 86 68 64 67 78 71 64 69 80 82 83 83 76 77 81 78 74 70 67 62 62 59
174 180 183 176 173 169 147 145 144 137 137 125 131 154 151 123 102 101 84 67 59 62 51 52 61 67 80 85 85 92 94 91 83 75 80 81 75 71 68 65 62 59 59
159 170 170 167 160 159 150 150 153 153 159 150 169 160 146 128 108 101 84 71 68 74 71 68 72 80 83 91 99 103 102 96 85 81 83 82 77 71 67 63 59 59 60
153 154 158 159 160 154 139 147 136 158 160 143 118 131 145 136 128 120 94 75 66 77 87 88 85 84 86 88 97 104 103 101 96 87 78 79 77 70 68 64 61 60 61
163 160 155 152 152 139 137 141 130 144 123 96 93 111 133 135 132 121 102 89 70 77 88 94 95 92 83 85 81 91 102 106 104 95 86 79 76 74 69 66 63 61 60
170 158 148 142 135 129 126 122 111 108 98 84 84 92 102 120 124 119 107 96 86 92 90 85 82 80 75 76 70 83 99 103 110 109 100 86 74 73 71 68 63 59 58
164 153 150 139 131 122 117 108 102 96 94 88 92 93 94 103 115 109 103 93 97 95 92 87 79 75 67 70 70 61 79 97 106 127 114 102 89 75 70 67 62 59 57
163 152 142 137 137 132 119 103 91 89 87 90 92 92 91 94 108 109 101 97 98 88 76 93 77 88 85 68 80 66 56 73 92 116 116 120 108 96 85 76 68 61 56
158 151 147 143 143 133 109 89 74 67 62 76 89 94 95 100 112 109 102 94 97 88 72 78 83 66 77 72 80 62 33 35 55 80 103 123 124 119 102 88 74 60 55
157 155 155 150 152 136 122 119 111 105 74 52 71 96 100 109 115 110 107 100 100 104 109 104 93 71 45 55 70 42 22 25 35 43 67 95 116 131 119 105 89 70 55
166 165 164 163 161 159 153 147 146 142 142 132 71 83 104 114 122 121 121 117 114 108 94 93 99 92 42 56 102 89 33 2 360 18 25 73 87 100 108 113 105 88 72
172 173 173 174 169 168 153 123 100 75 53 45 41 42 78 113 122 125 126 127 124 122 125 123 123 121 115 24 85 131 133 207 308 340 2 22 41 67 80 97 114 113 95
180 174 170 171 171 167 152 148 149 154 171 198 188 182 69 109 121 134 134 132 133 129 130 139 132 130 129 115 15 58 139 152 143 338 340 355 16 42 43 82 105 122 115
175 170 171 168 169 165 162 162 158 164 177 179 157 151 170 75 116 137 142 136 136 138 142 135 124 122 128 140 139 101 77 73 100 134 265 331 354 347 8 59 94 104 115
168 165 166 166 173 170 167 166 165 170 168 162 171 175 196 223 3 134 140 136 135 139 148 145 135 131 133 129 124 122 138 136 154 140 168 232 306 318 347 5 60 84 111
Height
1540 1539 1539 1539 1539 1539 1538 1538 1538 1538 1537 1537 1536 1536 1536 1536 1535 1535 1536 1536 1536 1536 1536 1536 1536 1536 1536 1536 1535 1535 1535 1535 1534 1534 1533 1533 1532 1532 1532 1531 1531 1531 1531
1540 1540 1540 1540 1539 1539 1539 1539 1539 1538 1538 1537 1537 1536 1536 1536 1536 1536 1536 1536 1537 1537 1537 1537 1537 1537 1537 1537 1537 1536 1536 1536 1535 1535 1534 1534 1533 1533 1532 1532 1532 1532 1532
1540 1540 1540 1540 1540 1540 1540 1539 1539 1539 1538 1538 1537 1537 1537 1536 1536 1536 1536 1537 1537 1537 1538 1538 1538 1538 1538 1538 1538 1537 1537 1537 1537 1536 1536 1535 1535 1534 1533 1533 1533 1533 1532
1540 1541 1541 1541 1541 1541 1540 1540 1540 1539 1539 1539 1538 1538 1537 1537 1537 1537 1537 1538 1538 1538 1538 1538 1539 1539 1539 1539 1539 1539 1538 1538 1538 1537 1537 1536 1536 1535 1534 1534 1533 1533 1533
1541 1541 1541 1542 1542 1541 1541 1541 1540 1540 1540 1540 1539 1539 1539 1538 1538 1538 1538 1539 1539 1539 1539 1539 1540 1540 1540 1540 1540 1540 1539 1539 1539 1538 1538 1537 1537 1536 1536 1535 1534 1534 1534
1541 1542 1542 1542 1542 1542 1542 1542 1541 1541 1541 1541 1540 1540 1540 1540 1539 1539 1540 1540 1540 1540 1541 1541 1541 1541 1541 1541 1541 1541 1540 1540 1540 1540 1539 1539 1538 1537 1537 1536 1535 1535 1535
1542 1543 1543 1543 1543 1543 1543 1543 1543 1543 1542 1542 1542 1542 1541 1541 1541 1541 1541 1541 1541 1541 1542 1542 1542 1542 1542 1542 1542 1542 1542 1541 1541 1541 1540 1540 1539 1538 1538 1537 1536 1536 1535
1544 1544 1544 1544 1544 1544 1544 1544 1544 1544 1544 1544 1543 1543 1543 1542 1542 1542 1542 1542 1543 1543 1543 1543 1543 1543 1543 1543 1543 1543 1543 1543 1542 1542 1541 1541 1540 1539 1539 1538 1537 1537 1536
1545 1545 1545 1546 1546 1546 1546 1546 1546 1545 1545 1545 1545 1544 1544 1544 1544 1544 1544 1544 1544 1544 1544 1544 1545 1545 1545 1545 1545 1545 1544 1544 1544 1543 1542 1542 1541 1540 1539 1539 1538 1537 1536
1546 1546 1546 1547 1547 1547 1547 1547 1547 1547 1547 1547 1546 1546 1546 1546 1546 1545 1545 1546 1546 1546 1546 1546 1546 1546 1546 1546 1546 1546 1546 1545 1545 1544 1544 1543 1542 1541 1540 1539 1539 1538 1537
1547 1547 1548 1548 1548 1548 1548 1548 1548 1548 1548 1548 1548 1547 1547 1547 1547 1547 1547 1547 1547 1547 1548 1548 1548 1548 1548 1548 1548 1548 1547 1547 1546 1545 1545 1544 1543 1542 1541 1540 1539 1539 1538
1547 1548 1549 1549 1549 1549 1550 1550 1550 1550 1549 1549 1549 1549 1548 1548 1548 1548 1548 1549 1549 1549 1549 1549 1549 1549 1549 1549 1549 1549 1549 1548 1548 1547 1546 1545 1544 1543 1542 1541 1540 1539 1538
1547 1548 1549 1550 1550 1551 1551 1551 1551 1551 1551 1551 1550 1550 1550 1549 1549 1549 1549 1550 1550 1550 1550 1550 1550 1550 1550 1550 1550 1550 1550 1550 1549 1548 1547 1546 1545 1544 1543 1542 1541 1540 1539
1548 1549 1550 1551 1551 1552 1552 1552 1552 1552 1552 1552 1551 1551 1551 1551 1550 1551 1551 1551 1551 1552 1552 1552 1552 1552 1552 1552 1552 1551 1551 1551 1550 1549 1548 1548 1547 1545 1544 1543 1542 1541 1540
1548 1549 1550 1551 1552 1553 1553 1553 1553 1552 1552 1552 1552 1552 1552 1552 1552 1552 1552 1552 1553 1553 1553 1553 1553 1553 1553 1553 1553 1553 1552 1552 1551 1551 1550 1549 1548 1547 1546 1544 1543 1542 1541
1548 1549 1550 1551 1552 1553 1553 1553 1553 1553 1553 1553 1553 1553 1553 1553 1553 1553 1553 1554 1554 1554 1554 1554 1554 1554 1554 1554 1554 1554 1554 1553 1553 1552 1551 1550 1550 1548 1547 1546 1545 1544 1542
1548 1549 1550 1551 1552 1553 1553 1554 1554 1554 1554 1554 1554 1554 1554 1554 1554 1554 1554 1554 1555 1555 1555 1555 1555 1555 1555 1555 1555 1555 1555 1554 1554 1554 1553 1552 1551 1550 1549 1548 1546 1545 1543
1548 1549 1550 1551 1552 1553 1554 1554 1554 1555 1555 1555 1555 1555 1555 1555 1555 1555 1555 1555 1556 1556 1556 1556 1555 1555 1556 1556 1556 1556 1556 1556 1555 1555 1554 1553 1552 1551 1550 1549 1547 1546 1544
1547 1549 1550 1551 1552 1553 1554 1554 1555 1555 1555 1555 1555 1555 1555 1556 1556 1556 1556 1556 1556 1556 1556 1556 1556 1556 1556 1557 1557 1557 1557 1557 1556 1556 1555 1555 1554 1553 1551 1550 1549 1547 1546
1546 1548 1549 1551 1552 1553 1554 1554 1555 1555 1555 1556 1556 1556 1556 1556 1556 1556 1556 1556 1556 1556 1556 1556 1557 1557 1557 1557 1557 1557 1558 1558 1557 1557 1556 1556 1555 1554 1553 1552 1550 1549 1547
1546 1547 1549 1550 1551 1552 1553 1554 1554 1555 1555 1556 1556 1556 1556 1556 1556 1556 1556 1556 1557 1557 1557 1557 1557 1557 1557 1558 1558 1558 1558 1558 1558 1558 1557 1557 1556 1555 1554 1553 1551 1550 1548
1544 1546 1547 1549 1550 1551 1552 1553 1554 1555 1555 1556 1556 1556 1556 1556 1556 1557 1557 1557 1557 1557 1557 1557 1557 1558 1558 1558 1558 1558 1559 1560 1559 1559 1558 1557 1557 1556 1555 1553 1552 1551 1549
1543 1544 1546 1548 1549 1550 1552 1553 1553 1554 1555 1555 1556 1556 1556 1556 1556 1557 1557 1557 1557 1557 1557 1557 1558 1558 1558 1558 1558 1559 1559 1559 1559 1559 1558 1558 1557 1556 1555 1554 1553 1551 1550
1541 1543 1545 1547 1548 1549 1550 1551 1552 1553 1554 1554 1555 1555 1556 1556 1556 1556 1557 1557 1557 1557 1557 1557 1558 1558 1558 1558 1558 1558 1559 1559 1559 1559 1559 1558 1558 1557 1556 1554 1553 1552 1550
1540 1542 1544 1545 1547 1548 1549 1550 1551 1552 1553 1554 1554 1555 1555 1555 1556 1556 1556 1556 1557 1557 1557 1557 1557 1558 1558 1558 1558 1558 1558 1558 1558 1558 1558 1558 1558 1557 1556 1555 1554 1552 1551
1538 1540 1542 1543 1545 1547 1548 1549 1550 1551 1552 1552 1553 1554 1554 1554 1555 1555 1555 1556 1556 1556 1556 1557 1557 1557 1558 1558 1558 1558 1558 1558 1557 1557 1557 1557 1557 1557 1556 1555 1554 1553 1551